Location: Bellflower
(33.8817°N, 118.1170°W)
Time: 12:23:01
(UTC+00:00)

Delta 2 Rocket - Pass Details

Date: 23 November 2020
Orbit: 415 x 805 km, 35.6° (Epoch: 22 January)

Event Time Altitude Azimuth Distance (km) Brightness Sun altitude
Exits shadow 12:18:40 53° 61° (ENE) 774 4.2 -27.5°
Drops below altitude 10° 12:22:08 10° 85° (E) 1,905 7.0 -26.8°
Sets 12:24:18 0° 87° (E) 2,738 8.1 -26.4°
